"Pseudo-MPEC" for P10RxRI

Created 2019 Sep 18 19:07:12 UT using Find_Orb

Click here for an explanation of pseudo-MPECs

 
 Astrometry: 
     P10RxRI  C2019 09 140a3Astrometry/_^a##\hDRRM6$o@%!1Dredacted;y/io`=ZG*iF51
     P10RxRI  C2019 09 14,hPdFfRj_^wfN!6H?;clickI+`I:)rhereTR!*AbLLLrlX=Qp:ryF51
     P10RxRI  C2019 09 14;.G5IK@ct4lFforilyDvt`I2umD8xoRpnH$o7(@Wknk8;4*nY[h?F51
     P10RxRI  C2019 09 14^i,Y6*L4SX_!=q=y7Nk`t]!.goA7;`explanationGtp+F+_$D:_F51
     P10RxRI KC2019 09 17.41900 04 27 45.46 -20 01 16.0    ~9HB7 20.2 RoNEOCP691
     P10RxRI KC2019 09 17.42779 04 27 46.37 -20 01 20.1    ~9HB7 21.0 RoNEOCP691
     P10RxRI KC2019 09 17.43658 04 27 47.39 -20 01 25.7    ~9HB7 21.0 RoNEOCP691
     P10RxRI KC2019 09 17.44537 04 27 48.37 -20 01 30.5    ~9HBq 20.0 RoNEOCP691
     P10RxRI KC2019 09 17.45416 04 27 49.33 -20 01 35.5    ~9HBq 19.8 RoNEOCP691
     P10RxRI KC2019 09 17.46295 04 27 50.28 -20 01 40.5    ~9HBq 20.8 RoNEOCP691
     P10RxRI KC2019 09 18.40092 04 29 35.45 -20 10 20.5    ~9IB7 20.4 RoNEOCP691
     P10RxRI KC2019 09 18.41803 04 29 37.29 -20 10 30.0    ~9IB7 20.5 RoNEOCP691
     P10RxRI KC2019 09 18.43509 04 29 39.10 -20 10 40.0    ~9IB7 20.2 RoNEOCP691

Station data:
(691) Steward Observatory, Kitt Peak - Spacewatch  (N31.962174 W111.600327)
   US/Arizona.  Observer J. V. Scotti. 0.9-m f/3 reflector + CCD.
(F51) Pan-STARRS 1, Haleakala  (N20.707235 W156.255910)  US/Hawaii.
   Observers N. Primak, A. Schultz, S. Watters, J. Thiel, T. Goggia. Measurer
   PS1 Science Consortium. 1.8-m Ritchey-Chrétien + CCD.

Orbital elements:  P10RxRI
   Perihelion 2019 Oct 12.977895 +/- 2.96 TT = 23:28:10 (JD 2458769.477895)
Epoch 2019 Sep 18.0 TT = JDT 2458744.5   Earth MOID: 0.6744   AutoNEOCP
M 353.60130333 +/- 1.5              (J2000 ecliptic)
n   0.25617437 +/- 0.0383           Peri.  283.04165 +/- 3.0
a   2.45534348 +/- 0.245            Node   112.84365 +/- 1.8
e   0.3864828 +/- 0.0504            Incl.   22.47484 +/- 0.53
P   3.85                   H 18.7   G  0.15   U 10.6  
q 1.50639523 +/- 0.0298    Q 3.40429172 +/- 0.524
From 13 observations 2019 Sept. 14-18; mean residual 0".23
Residuals in arcseconds: 
190914 F51  .08+  .07-    190917 691  .76-  .53+    190918 691  .17+  .01+    
190914 F51  .04-  .03-    190917 691  .05+  .11-    190918 691  .09+  .18+    
190914 F51  .07-  .06+    190917 691  .30+  .05+    190918 691  .28-  .22-    
190914 F51  .03+  .04+    190917 691  .29+  .01-    
190917 691  .01-  .34-    190917 691  .15+  .08-    

Ephemerides (geocentric):
Date (UTC) HH   RA              Dec         delta   r     elong  mag " sig PA
---- -- -- --  -------------   -----------  ------ ------ -----  --- ---- ---
2019 09 18 19  04 30 18.292   -20 13 49.60  .87740 1.5210 107.6 20.9 .108  50
2019 09 18 20  04 30 22.884   -20 14 12.65  .87721 1.5210 107.6 20.9 .127  44
2019 09 18 21  04 30 27.472   -20 14 35.69  .87702 1.5209 107.6 20.9 .148  39
2019 09 18 22  04 30 32.057   -20 14 58.73  .87684 1.5209 107.7 20.9 .170  35
2019 09 18 23  04 30 36.638   -20 15 21.77  .87665 1.5208 107.7 20.9 .192  32
2019 09 19 00  04 30 41.216   -20 15 44.80  .87646 1.5208 107.7 20.9 .216  30
2019 09 19 01  04 30 45.791   -20 16 07.83  .87628 1.5207 107.7 20.9 .240  28
2019 09 19 02  04 30 50.362   -20 16 30.85  .87609 1.5207 107.7 20.9 .264  26
2019 09 19 03  04 30 54.930   -20 16 53.87  .87591 1.5206 107.7 20.9 .290  25
2019 09 19 04  04 30 59.494   -20 17 16.89  .87572 1.5206 107.7 20.9 .316  24
2019 09 19 05  04 31 04.055   -20 17 39.90  .87554 1.5205 107.7 20.9 .342  23
2019 09 19 06  04 31 08.613   -20 18 02.91  .87535 1.5205 107.7 20.9 .369  22
2019 09 19 07  04 31 13.167   -20 18 25.91  .87516 1.5204 107.8 20.9 .396  22
2019 09 19 08  04 31 17.718   -20 18 48.91  .87498 1.5204 107.8 20.9 .424  21
2019 09 19 09  04 31 22.265   -20 19 11.90  .87479 1.5203 107.8 20.9 .452  20
2019 09 19 10  04 31 26.809   -20 19 34.89  .87461 1.5203 107.8 20.9 .480  20
2019 09 19 11  04 31 31.349   -20 19 57.88  .87442 1.5202 107.8 20.9 .509  19
2019 09 19 12  04 31 35.886   -20 20 20.86  .87424 1.5202 107.8 20.9 .539  19
2019 09 19 13  04 31 40.419   -20 20 43.84  .87405 1.5201 107.8 20.9 .569  19
2019 09 19 14  04 31 44.949   -20 21 06.81  .87387 1.5201 107.8 20.9 .599  18
2019 09 19 15  04 31 49.476   -20 21 29.78  .87368 1.5200 107.8 20.9 .630  18
2019 09 19 16  04 31 53.999   -20 21 52.75  .87350 1.5200 107.9 20.9 .661  18
2019 09 19 17  04 31 58.518   -20 22 15.71  .87331 1.5199 107.9 20.9 .693  18
2019 09 19 18  04 32 03.034   -20 22 38.66  .87313 1.5199 107.9 20.9 .725  17
2019 09 19 19  04 32 07.547   -20 23 01.61  .87294 1.5198 107.9 20.9 .757  17
2019 09 19 20  04 32 12.056   -20 23 24.56  .87276 1.5198 107.9 20.9 .790  17
2019 09 19 21  04 32 16.562   -20 23 47.50  .87257 1.5197 107.9 20.9 .823  17
2019 09 19 22  04 32 21.064   -20 24 10.44  .87239 1.5197 107.9 20.9 .857  17
2019 09 19 23  04 32 25.562   -20 24 33.37  .87221 1.5196 107.9 20.9 .891  17
2019 09 20 00  04 32 30.058   -20 24 56.30  .87202 1.5196 107.9 20.9 .926  16
2019 09 20 01  04 32 34.549   -20 25 19.22  .87184 1.5195 108.0 20.9 .961  16
2019 09 20 02  04 32 39.038   -20 25 42.14  .87165 1.5195 108.0 20.9 1.00  16
2019 09 20 03  04 32 43.522   -20 26 05.05  .87147 1.5195 108.0 20.9 1.03  16
2019 09 20 04  04 32 48.004   -20 26 27.96  .87128 1.5194 108.0 20.9 1.07  16
2019 09 20 05  04 32 52.481   -20 26 50.86  .87110 1.5194 108.0 20.9 1.10  16
2019 09 20 06  04 32 56.955   -20 27 13.76  .87092 1.5193 108.0 20.9 1.14  16
2019 09 20 07  04 33 01.426   -20 27 36.66  .87073 1.5193 108.0 20.8 1.18  16
2019 09 20 08  04 33 05.893   -20 27 59.55  .87055 1.5192 108.0 20.8 1.22  16
2019 09 20 09  04 33 10.357   -20 28 22.43  .87037 1.5192 108.0 20.8 1.26  16
2019 09 20 10  04 33 14.817   -20 28 45.31  .87018 1.5191 108.1 20.8 1.29  16
2019 09 20 11  04 33 19.274   -20 29 08.19  .87000 1.5191 108.1 20.8 1.33  16
2019 09 20 12  04 33 23.727   -20 29 31.05  .86981 1.5190 108.1 20.8 1.37  15
2019 09 20 13  04 33 28.176   -20 29 53.92  .86963 1.5190 108.1 20.8 1.41  15
2019 09 20 14  04 33 32.622   -20 30 16.78  .86945 1.5189 108.1 20.8 1.45  15
2019 09 20 15  04 33 37.065   -20 30 39.63  .86927 1.5189 108.1 20.8 1.49  15
2019 09 20 16  04 33 41.503   -20 31 02.48  .86908 1.5188 108.1 20.8 1.53  15
2019 09 20 17  04 33 45.939   -20 31 25.32  .86890 1.5188 108.1 20.8 1.58  15
2019 09 20 18  04 33 50.371   -20 31 48.16  .86872 1.5188 108.1 20.8 1.62  15